Flag for U.S.A. Weather past 2 weeks in Cedar Rapids, Iowa, U.S.A.

Now
27 °F

Passing clouds.


Feels Like: 19 °F
Forecast: 27 / 36 °F
Wind: 8 mph from North

Location: Cedar Rapids Municipal Airport

Current Time: Jan 27, 2015 at 5:34:35 AM

Latest Report: Jan 27, 2015 at 4:52 AM


Visibility: 10 mi

Pressure: 30.05 "Hg

Humidity: 100%

Dew point: 27 °F

Location of Cedar RapidsLocation

Historic Weather in Cedar Rapids — Graph

°F

Cedar Rapids temperature yesterday

Maximum temperature yesterday: 38 °F (at 3:56 PM)
Minimum temperature yesterday: 21 °F (at 12:52 AM)
Average temperature yesterday: 30 °F

Past Weeks' High & Low Weather Summary

 TemperatureHumidityPressure
High49 °F (Jan 24, 2:52 PM)100% (Jan 16, 12:52 AM)30.79 "Hg (Jan 16, 12:52 AM)
Low-7 °F (Jan 13, 3:52 AM)58% (Jan 12, 1:52 PM)29.57 "Hg (Jan 25, 12:52 AM)
Average27 °F85%30.08 "Hg
* Reported Jan 12 3:52 AM — Jan 27 3:52 AM, Cedar Rapids, Weather by CustomWeather, © 2014

Note: Actual official high and low records may vary slightly from our data, if they occured in-between our weather recording intervals... More about our weather records

Advertising

Cedar Rapids weather history for previous 24 hours

 ConditionsComfort  
Time TempWeatherWind HumidityBarometerVisibility
3:52 AM
Jan 27
28 °FClear.8 mph96%30.03 "Hg10 mi
2:52 AM29 °FClear.8 mph96%30.01 "Hg10 mi
1:52 AM31 °FClear.8 mph92%29.99 "Hg10 mi
12:52 AM32 °FClear.9 mph96%29.97 "Hg10 mi
11:52 PM
Jan 26
33 °FPassing clouds.8 mph96%29.95 "Hg10 mi
10:52 PM35 °FPassing clouds.10 mph92%29.93 "Hg10 mi
9:52 PM37 °FOvercast.14 mph93%29.91 "Hg10 mi
8:52 PM37 °FOvercast.13 mph93%29.90 "Hg10 mi
7:52 PM38 °FOvercast.12 mph90%29.89 "Hg10 mi
6:52 PM37 °FOvercast.8 mph93%29.88 "Hg10 mi
5:52 PM38 °FOvercast.7 mph93%29.84 "Hg10 mi
4:52 PM38 °FOvercast.6 mph93%29.83 "Hg10 mi
3:56 PM38 °FScattered clouds.5 mph90%29.79 "Hg10 mi
2:52 PM36 °FOvercast.5 mph89%29.80 "Hg9 mi
1:52 PM34 °FOvercast.6 mph88%29.79 "Hg9 mi
12:52 PM32 °FOvercast.7 mph92%29.80 "Hg8 mi
12:00 PM31 °FOvercast.9 mph89%29.80 "Hg8 mi
10:52 AM28 °FLow clouds.14 mph93%29.84 "Hg8 mi
9:52 AM26 °FIce fog.10 mph92%29.88 "Hg4 mi
8:52 AM24 °FLight snow. Ice fog.9 mph91%29.88 "Hg3 mi
7:52 AM23 °FLight snow. Ice fog.10 mph88%29.90 "Hg2 mi
6:52 AM22 °FOvercast.8 mph85%29.96 "Hg9 mi
5:52 AM21 °FOvercast.7 mph85%29.96 "Hg10 mi
Weather by CustomWeather, © 2014

See weather overviewHow to use our weather pages